| time (UTC) | temp F | wind direction | speed knots | gust knots | rain 1hr in | rain 24hr in | rain mn in | humidity % | barometer mb |
| 20260905235019 | 64 | 247 | 4.3 | 7.0 | 0.00 | 0.00 | 0.00 | ||
| 20260905234616 | 63 | 256 | 3.5 | 5.2 | 0.00 | 0.00 | 0.00 | ||
| 20260905234208 | 63 | 253 | 2.6 | 4.3 | 0.00 | 0.00 | 0.00 | ||
| 20260905233405 | 59 | 288 | 3.5 | 7.0 | 0.00 | 0.00 | 0.00 | ||
| 20260905233003 | 60 | 269 | 5.2 | 8.7 | 0.00 | 0.00 | 0.00 | ||
| 20260905232601 | 60 | 289 | 5.2 | 8.7 | 0.00 | 0.00 | 0.00 | ||
| 20260905232200 | 61 | 290 | 4.3 | 6.1 | 0.00 | 0.00 | 0.00 | ||
| 20260905231758 | 61 | 298 | 4.3 | 7.0 | 0.00 | 0.00 | 0.00 | ||
| 20260905231357 | 61 | 291 | 4.3 | 7.8 | 0.00 | 0.00 | 0.00 | ||
| 20260905230955 | 61 | 301 | 3.5 | 6.1 | 0.00 | 0.00 | 0.00 | ||
| 20260905230553 | 61 | 303 | 4.3 | 7.8 | 0.00 | 0.00 | 0.00 | ||
| 20260905230145 | 61 | 290 | 5.2 | 7.8 | 0.00 | 0.00 | 0.00 | ||
| 20260905225743 | 61 | 298 | 3.5 | 6.1 | 0.00 | 0.00 | 0.00 | ||
| 20260905225341 | 61 | 281 | 4.3 | 7.0 | 0.00 | 0.00 | 0.00 | ||
| 20260905224940 | 62 | 301 | 3.5 | 7.8 | 0.00 | 0.00 | 0.00 | ||
| 20260905224538 | 62 | 306 | 3.5 | 7.8 | 0.00 | 0.00 | 0.00 | ||
| 20260905224137 | 62 | 294 | 3.5 | 6.1 | 0.00 | 0.00 | 0.00 | ||
| 20260905223734 | 62 | 299 | 3.5 | 7.8 | 0.00 | 0.00 | 0.00 | ||
| 20260905223333 | 62 | 292 | 5.2 | 9.6 | 0.00 | 0.00 | 0.00 | ||
| 20260905223032 | 62 | 302 | 5.2 | 10.4 | 0.00 | 0.00 | 0.00 | ||
| 20260905222932 | 62 | 302 | 5.2 | 10.4 | 0.00 | 0.00 | 0.00 | ||
| 20260905222531 | 62 | 301 | 5.2 | 7.8 | 0.00 | 0.00 | 0.00 | ||
| 20260905222121 | 62 | 299 | 4.3 | 7.8 | 0.00 | 0.00 | 0.00 | ||
| 20260905221719 | 61 | 303 | 3.5 | 6.1 | 0.00 | 0.00 | 0.00 | ||
| 20260905221319 | 62 | 308 | 4.3 | 7.8 | 0.00 | 0.00 | 0.00 | ||
| 20260905220918 | 63 | 315 | 2.6 | 5.2 | 0.00 | 0.00 | 0.00 | ||
| 20260905220516 | 62 | 298 | 3.5 | 7.8 | 0.00 | 0.00 | 0.00 | ||
| 20260905220114 | 62 | 333 | 4.3 | 10.4 | 0.00 | 0.00 | 0.00 | ||
| 20260905215712 | 62 | 322 | 6.1 | 15.6 | 0.00 | 0.00 | 0.00 | ||
| 20260905215311 | 62 | 328 | 7.8 | 12.2 | 0.00 | 0.00 | 0.00 | ||
| 20260905214910 | 63 | 323 | 5.2 | 9.6 | 0.00 | 0.00 | 0.00 | ||
| 20260905214507 | 63 | 319 | 5.2 | 11.3 | 0.00 | 0.00 | 0.00 | ||
| 20260905214059 | 64 | 324 | 6.1 | 9.6 | 0.00 | 0.00 | 0.00 | ||
| 20260905213657 | 64 | 320 | 7.0 | 11.3 | 0.00 | 0.00 | 0.00 | ||
| 20260905213256 | 65 | 314 | 6.1 | 12.2 | 0.00 | 0.00 | 0.00 | ||
| 20260905212854 | 65 | 282 | 5.2 | 8.7 | 0.00 | 0.00 | 0.00 | ||
| 20260905212452 | 65 | 275 | 5.2 | 9.6 | 0.00 | 0.00 | 0.00 | ||
| 20260905212051 | 66 | 275 | 7.0 | 12.2 | 0.00 | 0.00 | 0.00 | ||
| 20260905211649 | 66 | 267 | 7.0 | 13.9 | 0.00 | 0.00 | 0.00 | ||
| 20260905211247 | 66 | 268 | 7.0 | 9.6 | 0.00 | 0.00 | 0.00 | ||
| 20260905210846 | 66 | 265 | 6.1 | 7.8 | 0.00 | 0.00 | 0.00 | ||
| 20260905210444 | 66 | 272 | 6.1 | 8.7 | 0.00 | 0.00 | 0.00 | ||
| 20260905210036 | 66 | 271 | 6.1 | 9.6 | 0.00 | 0.00 | 0.00 | ||
| 20260905205635 | 66 | 265 | 5.2 | 7.0 | 0.00 | 0.00 | 0.00 | ||
| 20260905205232 | 66 | 271 | 5.2 | 7.8 | 0.00 | 0.00 | 0.00 | ||
| 20260905204831 | 66 | 268 | 5.2 | 7.0 | 0.00 | 0.00 | 0.00 | ||
| 20260905204429 | 65 | 281 | 6.1 | 10.4 | 0.00 | 0.00 | 0.00 | ||
| 20260905204028 | 66 | 268 | 6.1 | 8.7 | 0.00 | 0.00 | 0.00 | ||
| 20260905203625 | 66 | 275 | 6.1 | 9.6 | 0.00 | 0.00 | 0.00 | ||
| 20260905203224 | 66 | 266 | 6.1 | 8.7 | 0.00 | 0.00 | 0.00 | ||
| 20260905202823 | 65 | 276 | 6.1 | 9.6 | 0.00 | 0.00 | 0.00 | ||
| 20260905202421 | 65 | 268 | 5.2 | 7.8 | 0.00 | 0.00 | 0.00 | ||
| 20260905202012 | 66 | 271 | 5.2 | 7.8 | 0.00 | 0.00 | 0.00 | ||
| 20260905201610 | 66 | 269 | 6.1 | 8.7 | 0.00 | 0.00 | 0.00 | ||
| 20260905201209 | 66 | 265 | 5.2 | 7.8 | 0.00 | 0.00 | 0.00 | ||
| 20260905200808 | 67 | 260 | 6.1 | 7.8 | 0.00 | 0.00 | 0.00 | ||
| 20260905200405 | 67 | 258 | 5.2 | 7.0 | 0.00 | 0.00 | 0.00 | ||
| 20260905200003 | 68 | 252 | 5.2 | 8.7 | 0.00 | 0.00 | 0.00 | ||
| 20260905195601 | 68 | 268 | 4.3 | 7.0 | 0.00 | 0.00 | 0.00 | ||
| 20260905195201 | 68 | 260 | 6.1 | 7.0 | 0.00 | 0.00 | 0.00 | ||
| 20260905194759 | 68 | 250 | 5.2 | 8.7 | 0.00 | 0.00 | 0.00 | ||
| 20260905194356 | 68 | 250 | 6.1 | 7.8 | 0.00 | 0.00 | 0.00 | ||
| 20260905193948 | 68 | 251 | 5.2 | 7.8 | 0.00 | 0.00 | 0.00 | ||
| 20260905193546 | 68 | 259 | 5.2 | 7.8 | 0.00 | 0.00 | 0.00 | ||
| 20260905193145 | 68 | 255 | 5.2 | 7.0 | 0.00 | 0.00 | 0.00 | ||
| 20260905192743 | 69 | 251 | 5.2 | 8.7 | 0.00 | 0.00 | 0.00 | ||
| 20260905192341 | 69 | 258 | 4.3 | 7.8 | 0.00 | 0.00 | 0.00 | ||
| 20260905191940 | 69 | 251 | 4.3 | 7.8 | 0.00 | 0.00 | 0.00 | ||
| 20260905191538 | 68 | 262 | 5.2 | 7.8 | 0.00 | 0.00 | 0.00 | ||
| 20260905191136 | 68 | 261 | 5.2 | 7.8 | 0.00 | 0.00 | 0.00 | ||
| 20260905190735 | 68 | 261 | 4.3 | 7.0 | 0.00 | 0.00 | 0.00 | ||
| 20260905190333 | 68 | 262 | 6.1 | 8.7 | 0.00 | 0.00 | 0.00 | ||
| 20260905185925 | 68 | 260 | 5.2 | 8.7 | 0.00 | 0.00 | 0.00 | ||
| 20260905185522 | 68 | 255 | 4.3 | 7.8 | 0.00 | 0.00 | 0.00 | ||
| 20260905185121 | 68 | 262 | 6.1 | 7.8 | 0.00 | 0.00 | 0.00 | ||
| 20260905184720 | 68 | 269 | 6.1 | 8.7 | 0.00 | 0.00 | 0.00 | ||
| 20260905184318 | 68 | 272 | 5.2 | 7.8 | 0.00 | 0.00 | 0.00 | ||
| 20260905183917 | 68 | 270 | 7.0 | 8.7 | 0.00 | 0.00 | 0.00 | ||
| 20260905183514 | 68 | 278 | 7.0 | 10.4 | 0.00 | 0.00 | 0.00 | ||
| 20260905183113 | 68 | 272 | 6.1 | 8.7 | 0.00 | 0.00 | 0.00 | ||
| 20260905182712 | 68 | 277 | 6.1 | 7.8 | 0.00 | 0.00 | 0.00 | ||
| 20260905182310 | 68 | 271 | 5.2 | 8.7 | 0.00 | 0.00 | 0.00 | ||
| 20260905181901 | 68 | 268 | 6.1 | 10.4 | 0.00 | 0.00 | 0.00 | ||
| 20260905181459 | 68 | 277 | 8.7 | 13.0 | 0.00 | 0.00 | 0.00 | ||
| 20260905181059 | 68 | 270 | 8.7 | 12.2 | 0.00 | 0.00 | 0.00 | ||
| 20260905180657 | 68 | 270 | 7.8 | 12.2 | 0.00 | 0.00 | 0.00 | ||
| 20260905180254 | 68 | 269 | 7.8 | 8.7 | 0.00 | 0.00 | 0.00 | ||
| 20260905175853 | 69 | 272 | 7.8 | 12.2 | 0.00 | 0.00 | 0.00 | ||
| 20260905175452 | 69 | 272 | 6.1 | 11.3 | 0.00 | 0.00 | 0.00 | ||
| 20260905175051 | 69 | 268 | 7.0 | 10.4 | 0.00 | 0.00 | 0.00 | ||
| 20260905174649 | 69 | 277 | 6.1 | 8.7 | 0.00 | 0.00 | 0.00 | ||
| 20260905174247 | 68 | 282 | 5.2 | 8.7 | 0.00 | 0.00 | 0.00 | ||
| 20260905173839 | 69 | 274 | 7.0 | 13.9 | 0.00 | 0.00 | 0.00 | ||
| 20260905173437 | 69 | 269 | 7.8 | 10.4 | 0.00 | 0.00 | 0.00 | ||
| 20260905173036 | 69 | 270 | 6.1 | 10.4 | 0.00 | 0.00 | 0.00 | ||
| 20260905172634 | 69 | 271 | 6.1 | 9.6 | 0.00 | 0.00 | 0.00 | ||
| 20260905172232 | 69 | 270 | 7.0 | 10.4 | 0.00 | 0.00 | 0.00 | ||
| 20260905171831 | 69 | 270 | 6.1 | 12.2 | 0.00 | 0.00 | 0.00 | ||
| 20260905171429 | 69 | 277 | 7.0 | 11.3 | 0.00 | 0.00 | 0.00 | ||
| 20260905171027 | 69 | 269 | 6.1 | 8.7 | 0.00 | 0.00 | 0.00 | ||
| 20260905170626 | 70 | 270 | 6.1 | 7.8 | 0.00 | 0.00 | 0.00 | ||
| 20260905170224 | 70 | 272 | 4.3 | 7.8 | 0.00 | 0.00 | 0.00 | ||
| 20260905165816 | 70 | 277 | 7.0 | 10.4 | 0.00 | 0.00 | 0.00 | ||
| 20260905165413 | 70 | 272 | 7.0 | 10.4 | 0.00 | 0.00 | 0.00 | ||
| 20260905165012 | 70 | 283 | 6.1 | 10.4 | 0.00 | 0.00 | 0.00 | ||
| 20260905164611 | 70 | 283 | 7.0 | 8.7 | 0.00 | 0.00 | 0.00 | ||
| 20260905164210 | 71 | 281 | 7.0 | 10.4 | 0.00 | 0.00 | 0.00 | ||
| 20260905163807 | 71 | 279 | 8.7 | 11.3 | 0.00 | 0.00 | 0.00 | ||
| 20260905163406 | 71 | 268 | 7.0 | 8.7 | 0.00 | 0.00 | 0.00 | ||
| 20260905163005 | 72 | 279 | 7.8 | 14.8 | 0.00 | 0.00 | 0.00 | ||
| 20260905162604 | 71 | 271 | 7.8 | 11.3 | 0.00 | 0.00 | 0.00 | ||
| 20260905162202 | 73 | 271 | 10.4 | 14.8 | 0.00 | 0.00 | 0.00 | ||
| 20260905161753 | 73 | 269 | 7.0 | 13.0 | 0.00 | 0.00 | 0.00 | ||
| 20260905161351 | 74 | 269 | 9.6 | 13.9 | 0.00 | 0.00 | 0.00 | ||
| 20260905160950 | 73 | 274 | 9.6 | 13.9 | 0.00 | 0.00 | 0.00 | ||
| 20260905160549 | 73 | 271 | 7.8 | 14.8 | 0.00 | 0.00 | 0.00 | ||
| 20260905160146 | 73 | 266 | 7.8 | 14.8 | 0.00 | 0.00 | 0.00 | ||
| 20260905155745 | 73 | 261 | 8.7 | 12.2 | 0.00 | 0.00 | 0.00 | ||
| 20260905155343 | 73 | 258 | 8.7 | 11.3 | 0.00 | 0.00 | 0.00 | ||
| 20260905154942 | 73 | 254 | 8.7 | 14.8 | 0.00 | 0.00 | 0.00 | ||
| 20260905154540 | 73 | 256 | 8.7 | 13.9 | 0.00 | 0.00 | 0.00 | ||
| 20260905154138 | 73 | 267 | 8.7 | 14.8 | 0.00 | 0.00 | 0.00 | ||
| 20260905153730 | 73 | 276 | 7.0 | 11.3 | 0.00 | 0.00 | 0.00 | ||
| 20260905153328 | 73 | 274 | 9.6 | 13.9 | 0.00 | 0.00 | 0.00 | ||
| 20260905152926 | 73 | 276 | 10.4 | 15.6 | 0.00 | 0.00 | 0.00 | ||
| 20260905152525 | 73 | 255 | 8.7 | 12.2 | 0.00 | 0.00 | 0.00 | ||
| 20260905152123 | 73 | 259 | 9.6 | 14.8 | 0.00 | 0.00 | 0.00 | ||
| 20260905151722 | 73 | 246 | 11.3 | 15.6 | 0.00 | 0.00 | 0.00 | ||
| 20260905151321 | 73 | 251 | 7.8 | 13.0 | 0.00 | 0.00 | 0.00 | ||
| 20260905150918 | 73 | 267 | 12.2 | 25.2 | 0.00 | 0.00 | 0.00 | ||
| 20260905150517 | 72 | 268 | 7.8 | 12.2 | 0.00 | 0.00 | 0.00 | ||
| 20260905150116 | 72 | 271 | 10.4 | 16.5 | 0.00 | 0.00 | 0.00 | ||
| 20260905145708 | 72 | 269 | 11.3 | 16.5 | 0.00 | 0.00 | 0.00 | ||
| 20260905145306 | 73 | 258 | 7.8 | 12.2 | 0.00 | 0.00 | 0.00 | ||
| 20260905144904 | 73 | 265 | 8.7 | 12.2 | 0.00 | 0.00 | 0.00 | ||
| 20260905144503 | 73 | 263 | 9.6 | 16.5 | 0.00 | 0.00 | 0.00 | ||
| 20260905144101 | 74 | 262 | 10.4 | 17.4 | 0.00 | 0.00 | 0.00 | ||
| 20260905143659 | 74 | 256 | 12.2 | 17.4 | 0.00 | 0.00 | 0.00 | ||
| 20260905143257 | 74 | 267 | 10.4 | 15.6 | 0.00 | 0.00 | 0.00 | ||
| 20260905142856 | 74 | 268 | 9.6 | 14.8 | 0.00 | 0.00 | 0.00 | ||
| 20260905142455 | 75 | 277 | 13.0 | 19.1 | 0.00 | 0.00 | 0.00 | ||
| 20260905142052 | 75 | 263 | 7.0 | 10.4 | 0.00 | 0.00 | 0.00 | ||
| 20260905141644 | 75 | 243 | 9.6 | 12.2 | 0.00 | 0.00 | 0.00 | ||
| 20260905141242 | 74 | 255 | 8.7 | 16.5 | 0.00 | 0.00 | 0.00 | ||
| 20260905140841 | 74 | 262 | 8.7 | 12.2 | 0.00 | 0.00 | 0.00 | ||
| 20260905140440 | 74 | 237 | 7.8 | 11.3 | 0.00 | 0.00 | 0.00 | ||
| 20260905140037 | 74 | 241 | 8.7 | 15.6 | 0.00 | 0.00 | 0.00 | ||
| 20260905135636 | 74 | 271 | 9.6 | 13.9 | 0.00 | 0.00 | 0.00 | ||
| 20260905135234 | 74 | 262 | 10.4 | 16.5 | 0.00 | 0.00 | 0.00 | ||
| 20260905134833 | 74 | 238 | 9.6 | 14.8 | 0.00 | 0.00 | 0.00 | ||
| 20260905134431 | 74 | 260 | 8.7 | 13.9 | 0.00 | 0.00 | 0.00 | ||
| 20260905134029 | 74 | 255 | 12.2 | 18.2 | 0.00 | 0.00 | 0.00 | ||
| 20260905133621 | 74 | 275 | 10.4 | 18.2 | 0.00 | 0.00 | 0.00 | ||
| 20260905133219 | 74 | 272 | 6.1 | 11.3 | 0.00 | 0.00 | 0.00 | ||
| 20260905132817 | 73 | 261 | 7.8 | 11.3 | 0.00 | 0.00 | 0.00 | ||
| 20260905132416 | 73 | 262 | 8.7 | 13.0 | 0.00 | 0.00 | 0.00 | ||
| 20260905132014 | 73 | 267 | 10.4 | 13.9 | 0.00 | 0.00 | 0.00 | ||
| 20260905131613 | 74 | 230 | 10.4 | 15.6 | 0.00 | 0.00 | 0.00 | ||
| 20260905131210 | 75 | 240 | 7.0 | 13.9 | 0.00 | 0.00 | 0.00 | ||
| 20260905130809 | 75 | 241 | 6.1 | 9.6 | 0.00 | 0.00 | 0.00 | ||
| 20260905130407 | 75 | 218 | 7.8 | 12.2 | 0.00 | 0.00 | 0.00 | ||
| 20260905130006 | 75 | 226 | 7.8 | 14.8 | 0.00 | 0.00 | 0.00 | ||
| 20260905125646 | 74 | 226 | 7.8 | 13.0 | 0.00 | 0.00 | 0.00 | ||
| 20260905125558 | 74 | 226 | 7.8 | 13.0 | 0.00 | 0.00 | 0.00 | ||
| 20260905125155 | 74 | 261 | 7.8 | 11.3 | 0.00 | 0.00 | 0.00 | ||
| 20260905124353 | 73 | 238 | 8.7 | 12.2 | 0.00 | 0.00 | 0.00 | ||
| 20260905123951 | 72 | 255 | 7.8 | 10.4 | 0.00 | 0.00 | 0.00 | ||
| 20260905123548 | 73 | 244 | 6.1 | 10.4 | 0.00 | 0.00 | 0.00 | ||
| 20260905123146 | 74 | 248 | 9.6 | 15.6 | 0.00 | 0.00 | 0.00 | ||
| 20260905122745 | 74 | 266 | 7.8 | 11.3 | 0.00 | 0.00 | 0.00 | ||
| 20260905122344 | 74 | 233 | 7.0 | 12.2 | 0.00 | 0.00 | 0.00 | ||
| 20260905121941 | 73 | 245 | 7.8 | 13.9 | 0.00 | 0.00 | 0.00 | ||
| 20260905121533 | 73 | 251 | 8.7 | 13.9 | 0.00 | 0.00 | 0.00 | ||
| 20260905121131 | 73 | 230 | 8.7 | 12.2 | 0.00 | 0.00 | 0.00 | ||
| 20260905120730 | 73 | 256 | 7.0 | 11.3 | 0.00 | 0.00 | 0.00 | ||
| 20260905120328 | 72 | 260 | 7.8 | 11.3 | 0.00 | 0.00 | 0.00 | ||
| 20260905115926 | 73 | 227 | 7.8 | 15.6 | 0.00 | 0.00 | 0.00 | ||
| 20260905115525 | 73 | 227 | 8.7 | 13.9 | 0.00 | 0.00 | 0.00 | ||
| 20260905115122 | 72 | 238 | 5.2 | 8.7 | 0.00 | 0.00 | 0.00 | ||
| 20260905114721 | 72 | 241 | 8.7 | 17.4 | 0.00 | 0.00 | 0.00 | ||
| 20260905114319 | 73 | 216 | 6.1 | 10.4 | 0.00 | 0.00 | 0.00 | ||
| 20260905113917 | 72 | 255 | 7.0 | 13.0 | 0.00 | 0.00 | 0.00 | ||
| 20260905113509 | 72 | 213 | 8.7 | 16.5 | 0.00 | 0.00 | 0.00 | ||
| 20260905113107 | 71 | 245 | 8.7 | 12.2 | 0.00 | 0.00 | 0.00 | ||
| 20260905112705 | 71 | 249 | 7.8 | 13.0 | 0.00 | 0.00 | 0.00 | ||
| 20260905112306 | 71 | 245 | 7.8 | 11.3 | 0.00 | 0.00 | 0.00 | ||
| 20260905111902 | 72 | 219 | 6.1 | 13.9 | 0.00 | 0.00 | 0.00 | ||
| 20260905111501 | 71 | 245 | 7.0 | 8.7 | 0.00 | 0.00 | 0.00 | ||
| 20260905111058 | 70 | 241 | 7.8 | 14.8 | 0.00 | 0.00 | 0.00 | ||
| 20260905110657 | 71 | 243 | 7.0 | 10.4 | 0.00 | 0.00 | 0.00 | ||
| 20260905110256 | 72 | 223 | 6.1 | 11.3 | 0.00 | 0.00 | 0.00 | ||
| 20260905105855 | 71 | 219 | 7.0 | 14.8 | 0.00 | 0.00 | 0.00 | ||
| 20260905105445 | 71 | 212 | 7.8 | 12.2 | 0.00 | 0.00 | 0.00 | ||
| 20260905105044 | 70 | 226 | 8.7 | 15.6 | 0.00 | 0.00 | 0.00 | ||
| 20260905104643 | 70 | 246 | 10.4 | 16.5 | 0.00 | 0.00 | 0.00 | ||
| 20260905104242 | 70 | 248 | 8.7 | 10.4 | 0.00 | 0.00 | 0.00 | ||
| 20260905103840 | 70 | 237 | 7.0 | 14.8 | 0.00 | 0.00 | 0.00 | ||
| 20260905103438 | 70 | 246 | 9.6 | 14.8 | 0.00 | 0.00 | 0.00 | ||
| 20260905103036 | 70 | 228 | 7.0 | 8.7 | 0.00 | 0.00 | 0.00 | ||
| 20260905102635 | 71 | 225 | 8.7 | 12.2 | 0.00 | 0.00 | 0.00 | ||
| 20260905102234 | 70 | 249 | 9.6 | 13.9 | 0.00 | 0.00 | 0.00 | ||
| 20260905101831 | 69 | 245 | 10.4 | 15.6 | 0.00 | 0.00 | 0.00 | ||
| 20260905101423 | 70 | 239 | 11.3 | 16.5 | 0.00 | 0.00 | 0.00 | ||
| 20260905101021 | 69 | 220 | 10.4 | 13.9 | 0.00 | 0.00 | 0.00 | ||
| 20260905100620 | 69 | 240 | 8.7 | 12.2 | 0.00 | 0.00 | 0.00 | ||
| 20260905100218 | 70 | 258 | 8.7 | 12.2 | 0.00 | 0.00 | 0.00 | ||
| 20260905095816 | 70 | 219 | 9.6 | 17.4 | 0.00 | 0.00 | 0.00 | ||
| 20260905095415 | 69 | 254 | 10.4 | 14.8 | 0.00 | 0.00 | 0.00 | ||
| 20260905095013 | 69 | 245 | 5.2 | 7.8 | 0.00 | 0.00 | 0.00 | ||
| 20260905094611 | 69 | 230 | 8.7 | 13.9 | 0.00 | 0.00 | 0.00 | ||
| 20260905094210 | 68 | 230 | 9.6 | 14.8 | 0.00 | 0.00 | 0.00 | ||
| 20260905093808 | 68 | 234 | 9.6 | 17.4 | 0.00 | 0.00 | 0.00 | ||
| 20260905093400 | 67 | 254 | 9.6 | 11.3 | 0.00 | 0.00 | 0.00 | ||
| 20260905092958 | 68 | 235 | 9.6 | 14.8 | 0.00 | 0.00 | 0.00 | ||
| 20260905092556 | 69 | 227 | 7.8 | 11.3 | 0.00 | 0.00 | 0.00 | ||
| 20260905092155 | 68 | 225 | 9.6 | 13.0 | 0.00 | 0.00 | 0.00 | ||
| 20260905091754 | 69 | 238 | 7.0 | 13.0 | 0.00 | 0.00 | 0.00 | ||
| 20260905091353 | 69 | 234 | 5.2 | 8.7 | 0.00 | 0.00 | 0.00 | ||
| 20260905090950 | 69 | 242 | 7.0 | 11.3 | 0.00 | 0.00 | 0.00 | ||
| 20260905090549 | 68 | 218 | 9.6 | 16.5 | 0.00 | 0.00 | 0.00 | ||
| 20260905090148 | 68 | 229 | 7.8 | 13.0 | 0.00 | 0.00 | 0.00 | ||
| 20260905085746 | 67 | 225 | 6.1 | 9.6 | 0.00 | 0.00 | 0.00 | ||
| 20260905085337 | 67 | 231 | 9.6 | 19.1 | 0.00 | 0.00 | 0.00 | ||
| 20260905084935 | 67 | 240 | 7.8 | 12.2 | 0.00 | 0.00 | 0.00 | ||
| 20260905084534 | 67 | 249 | 7.8 | 12.2 | 0.00 | 0.00 | 0.00 | ||
| 20260905084133 | 67 | 244 | 6.1 | 11.3 | 0.00 | 0.00 | 0.00 | ||
| 20260905083730 | 67 | 223 | 5.2 | 10.4 | 0.00 | 0.00 | 0.00 | ||
| 20260905083329 | 66 | 211 | 5.2 | 9.6 | 0.00 | 0.00 | 0.00 | ||
| 20260905082927 | 66 | 235 | 6.1 | 9.6 | 0.00 | 0.00 | 0.00 | ||
| 20260905082526 | 66 | 228 | 4.3 | 7.8 | 0.00 | 0.00 | 0.00 | ||
| 20260905082125 | 67 | 209 | 4.3 | 7.8 | 0.00 | 0.00 | 0.00 | ||
| 20260905081722 | 67 | 216 | 3.5 | 7.0 | 0.00 | 0.00 | 0.00 | ||
| 20260905081314 | 66 | 205 | 4.3 | 8.7 | 0.00 | 0.00 | 0.00 | ||
| 20260905080912 | 66 | 215 | 5.2 | 8.7 | 0.00 | 0.00 | 0.00 | ||
| 20260905080511 | 65 | 208 | 5.2 | 7.8 | 0.00 | 0.00 | 0.00 | ||
| 20260905080109 | 66 | 218 | 4.3 | 8.7 | 0.00 | 0.00 | 0.00 | ||
| 20260905075707 | 65 | 216 | 5.2 | 7.8 | 0.00 | 0.00 | 0.00 | ||
| 20260905075306 | 65 | 220 | 5.2 | 7.8 | 0.00 | 0.00 | 0.00 | ||
| 20260905074904 | 65 | 241 | 5.2 | 7.8 | 0.00 | 0.00 | 0.00 | ||
| 20260905074502 | 65 | 249 | 3.5 | 6.1 | 0.00 | 0.00 | 0.00 | ||
| 20260905074101 | 64 | 254 | 4.3 | 7.8 | 0.00 | 0.00 | 0.00 | ||
| 20260905073659 | 63 | 255 | 6.1 | 8.7 | 0.00 | 0.00 | 0.00 | ||
| 20260905073251 | 64 | 252 | 5.2 | 10.4 | 0.00 | 0.00 | 0.00 | ||
| 20260905072848 | 65 | 223 | 2.6 | 5.2 | 0.00 | 0.00 | 0.00 | ||
| 20260905072447 | 66 | 207 | 3.5 | 7.0 | 0.00 | 0.00 | 0.00 | ||
| 20260905072046 | 66 | 200 | 5.2 | 8.7 | 0.00 | 0.00 | 0.00 | ||
| 20260905071644 | 67 | 199 | 2.6 | 3.5 | 0.00 | 0.00 | 0.00 | ||
| 20260905071243 | 66 | 192 | 3.5 | 6.1 | 0.00 | 0.00 | 0.00 | ||
| 20260905070840 | 67 | 225 | 1.7 | 3.5 | 0.00 | 0.00 | 0.00 | ||
| 20260905070440 | 67 | 225 | 2.6 | 5.2 | 0.00 | 0.00 | 0.00 | ||
| 20260905070038 | 66 | 225 | 2.6 | 6.1 | 0.00 | 0.00 | 0.00 | ||
| 20260905065636 | 65 | 248 | 2.6 | 4.3 | 0.00 | 0.00 | 0.00 | ||
| 20260905065227 | 62 | 270 | 3.5 | 4.3 | 0.00 | 0.00 | 0.00 | ||
| 20260905064825 | 62 | 270 | 4.3 | 6.1 | 0.00 | 0.00 | 0.00 | ||
| 20260905064424 | 62 | 247 | 3.5 | 4.3 | 0.00 | 0.00 | 0.00 | ||
| 20260905064023 | 64 | 244 | 2.6 | 7.0 | 0.00 | 0.00 | 0.00 | ||
| 20260905063620 | 63 | 250 | 4.3 | 5.2 | 0.00 | 0.00 | 0.00 | ||
| 20260905063219 | 62 | 252 | 3.5 | 5.2 | 0.00 | 0.00 | 0.00 | ||
| 20260905062818 | 62 | 262 | 3.5 | 5.2 | 0.00 | 0.00 | 0.00 | ||
| 20260905062417 | 63 | 268 | 4.3 | 6.1 | 0.00 | 0.00 | 0.00 | ||
| 20260905062014 | 62 | 270 | 3.5 | 5.2 | 0.00 | 0.00 | 0.00 | ||
| 20260905061612 | 62 | 251 | 3.5 | 5.2 | 0.00 | 0.00 | 0.00 | ||
| 20260905060802 | 62 | 247 | 4.3 | 7.0 | 0.00 | 0.00 | 0.00 | ||
| 20260905060402 | 61 | 239 | 7.8 | 12.2 | 0.00 | 0.00 | 0.00 | ||
| 20260905055959 | 60 | 256 | 5.2 | 8.7 | 0.00 | 0.00 | 0.00 | ||
| 20260905055557 | 60 | 257 | 5.2 | 7.8 | 0.00 | 0.00 | 0.00 | ||
| 20260905055156 | 60 | 265 | 6.1 | 8.7 | 0.00 | 0.00 | 0.00 | ||
| 20260905054754 | 61 | 246 | 5.2 | 9.6 | 0.00 | 0.00 | 0.00 | ||
| 20260905054352 | 63 | 243 | 4.3 | 7.0 | 0.00 | 0.00 | 0.00 | ||
| 20260905053951 | 62 | 259 | 6.1 | 8.7 | 0.00 | 0.00 | 0.00 | ||
| 20260905053549 | 61 | 264 | 6.1 | 7.8 | 0.00 | 0.00 | 0.00 | ||
| 20260905053141 | 61 | 267 | 5.2 | 7.8 | 0.00 | 0.00 | 0.00 | ||
| 20260905052738 | 62 | 266 | 4.3 | 7.8 | 0.00 | 0.00 | 0.00 | ||
| 20260905052337 | 63 | 261 | 5.2 | 9.6 | 0.00 | 0.00 | 0.00 | ||
| 20260905051936 | 67 | 250 | 4.3 | 7.0 | 0.00 | 0.00 | 0.00 | ||
| 20260905051535 | 66 | 253 | 5.2 | 7.0 | 0.00 | 0.00 | 0.00 | ||
| 20260905051132 | 65 | 249 | 5.2 | 7.8 | 0.00 | 0.00 | 0.00 | ||
| 20260905050731 | 66 | 207 | 2.6 | 5.2 | 0.00 | 0.00 | 0.00 | ||
| 20260905050330 | 64 | 202 | 2.6 | 3.5 | 0.00 | 0.00 | 0.00 | ||
| 20260905045929 | 64 | 202 | 2.6 | 4.3 | 0.00 | 0.00 | 0.00 | ||
| 20260905045527 | 63 | 202 | 1.7 | 3.5 | 0.00 | 0.00 | 0.00 | ||
| 20260905044715 | 61 | 135 | 0.9 | 2.6 | 0.00 | 0.00 | 0.00 | ||
| 20260905044314 | 62 | 225 | 0.9 | 2.6 | 0.00 | 0.00 | 0.00 | ||
| 20260905043913 | 64 | 225 | 2.6 | 4.3 | 0.00 | 0.00 | 0.00 | ||
| 20260905043509 | 65 | 209 | 2.6 | 3.5 | 0.00 | 0.00 | 0.00 | ||
| 20260905043109 | 64 | 202 | 0.0 | 0.9 | 0.00 | 0.00 | 0.00 | ||
| 20260905042706 | 64 | 202 | 0.0 | 0.0 | 0.00 | 0.00 | 0.00 | ||
| 20260905042307 | 65 | 202 | 0.0 | 0.9 | 0.00 | 0.00 | 0.00 | ||
| 20260905041903 | 66 | 202 | 0.0 | 1.7 | 0.00 | 0.00 | 0.00 | ||
| 20260905041501 | 68 | 158 | 1.7 | 2.6 | 0.00 | 0.00 | 0.00 | ||
| 20260905041053 | 64 | 135 | 0.0 | 0.9 | 0.00 | 0.00 | 0.00 | ||
| 20260905040651 | 64 | 135 | 0.0 | 1.7 | 0.00 | 0.00 | 0.00 | ||
| 20260905040249 | 65 | 162 | 1.7 | 2.6 | 0.00 | 0.00 | 0.00 | ||
| 20260905035848 | 63 | 180 | 0.0 | 0.0 | 0.00 | 0.00 | 0.00 | ||
| 20260905035446 | 63 | 180 | 0.0 | 0.9 | 0.00 | 0.00 | 0.00 | ||
| 20260905035045 | 64 | 193 | 1.7 | 2.6 | 0.00 | 0.00 | 0.00 | ||
| 20260905034643 | 66 | 212 | 2.6 | 3.5 | 0.00 | 0.00 | 0.00 | ||
| 20260905034241 | 69 | 202 | 2.6 | 5.2 | 0.00 | 0.00 | 0.00 | ||
| 20260905033840 | 68 | 199 | 1.7 | 2.6 | 0.00 | 0.00 | 0.00 | ||
| 20260905033438 | 68 | 180 | 1.7 | 3.5 | 0.00 | 0.00 | 0.00 | ||
| 20260905033030 | 67 | 180 | 0.9 | 1.7 | 0.00 | 0.00 | 0.00 | ||
| 20260905032627 | 68 | 180 | 0.9 | 1.7 | 0.00 | 0.00 | 0.00 | ||
| 20260905032226 | 68 | 180 | 0.9 | 1.7 | 0.00 | 0.00 | 0.00 | ||
| 20260905031825 | 68 | 180 | 1.7 | 2.6 | 0.00 | 0.00 | 0.00 | ||
| 20260905031424 | 67 | 135 | 0.9 | 2.6 | 0.00 | 0.00 | 0.00 | ||
| 20260905031021 | 66 | 135 | 0.0 | 1.7 | 0.00 | 0.00 | 0.00 | ||
| 20260905030620 | 66 | 135 | 0.0 | 0.9 | 0.00 | 0.00 | 0.00 | ||
| 20260905030219 | 68 | 146 | 1.7 | 2.6 | 0.00 | 0.00 | 0.00 | ||
| 20260905025818 | 68 | 180 | 0.9 | 1.7 | 0.00 | 0.00 | 0.00 | ||
| 20260905025414 | 67 | 180 | 0.0 | 0.9 | 0.00 | 0.00 | 0.00 | ||
| 20260905025006 | 67 | 180 | 0.0 | 0.9 | 0.00 | 0.00 | 0.00 | ||
| 20260905024605 | 67 | 180 | 0.0 | 1.7 | 0.00 | 0.00 | 0.00 | ||
| 20260905024204 | 68 | 180 | 0.0 | 0.0 | 0.00 | 0.00 | 0.00 | ||
| 20260905023803 | 68 | 180 | 0.9 | 1.7 | 0.00 | 0.00 | 0.00 | ||
| 20260905023400 | 68 | 180 | 0.9 | 1.7 | 0.00 | 0.00 | 0.00 | ||
| 20260905022959 | 68 | 180 | 0.9 | 1.7 | 0.00 | 0.00 | 0.00 | ||
| 20260905022557 | 69 | 214 | 1.7 | 3.5 | 0.00 | 0.00 | 0.00 | ||
| 20260905022156 | 68 | 315 | 0.0 | 0.0 | 0.00 | 0.00 | 0.00 | ||
| 20260905021754 | 68 | 315 | 1.7 | 3.5 | 0.00 | 0.00 | 0.00 | ||
| 20260905021352 | 68 | 312 | 1.7 | 5.2 | 0.00 | 0.00 | 0.00 | ||
| 20260905020944 | 69 | 21 | 0.9 | 1.7 | 0.00 | 0.00 | 0.00 | ||
| 20260905020542 | 67 | 21 | 0.0 | 1.7 | 0.00 | 0.00 | 0.00 | ||
| 20260905020139 | 69 | 21 | 0.0 | 1.7 | 0.00 | 0.00 | 0.00 | ||
| 20260905015738 | 69 | 21 | 0.9 | 1.7 | 0.00 | 0.00 | 0.00 | ||
| 20260905015336 | 68 | 20 | 0.9 | 1.7 | 0.00 | 0.00 | 0.00 | ||
| 20260905014936 | 69 | 21 | 0.0 | 0.0 | 0.00 | 0.00 | 0.00 | ||
| 20260905014533 | 68 | 21 | 0.0 | 0.9 | 0.00 | 0.00 | 0.00 | ||
| 20260905014132 | 67 | 21 | 0.9 | 2.6 | 0.00 | 0.00 | 0.00 | ||
| 20260905013731 | 68 | 21 | 0.9 | 2.6 | 0.00 | 0.00 | 0.00 | ||
| 20260905013329 | 67 | 21 | 1.7 | 2.6 | 0.00 | 0.00 | 0.00 | ||
| 20260905012921 | 69 | 21 | 1.7 | 3.5 | 0.00 | 0.00 | 0.00 | ||
| 20260905012518 | 71 | 21 | 1.7 | 2.6 | 0.00 | 0.00 | 0.00 | ||
| 20260905012117 | 69 | 21 | 0.0 | 0.9 | 0.00 | 0.00 | 0.00 | ||
| 20260905011716 | 69 | 2 | 0.9 | 1.7 | 0.00 | 0.00 | 0.00 | ||
| 20260905011314 | 69 | 0 | 0.0 | 1.7 | 0.00 | 0.00 | 0.00 | ||
| 20260905010912 | 70 | 0 | 0.0 | 0.9 | 0.00 | 0.00 | 0.00 | ||
| 20260905010510 | 68 | 0 | 0.0 | 1.7 | 0.00 | 0.00 | 0.00 | ||
| 20260905010109 | 68 | 0 | 0.0 | 0.9 | 0.00 | 0.00 | 0.00 | ||
| 20260905005708 | 68 | 0 | 0.0 | 1.7 | 0.00 | 0.00 | 0.00 | ||
| 20260905005306 | 68 | 340 | 2.6 | 3.5 | 0.00 | 0.00 | 0.00 | ||
| 20260905004857 | 68 | 338 | 0.0 | 1.7 | 0.00 | 0.00 | 0.00 | ||
| 20260905004455 | 69 | 338 | 0.9 | 1.7 | 0.00 | 0.00 | 0.00 | ||
| 20260905004054 | 69 | 338 | 0.9 | 1.7 | 0.00 | 0.00 | 0.00 | ||
| 20260905003652 | 69 | 356 | 0.9 | 2.6 | 0.00 | 0.00 | 0.00 | ||
| 20260905003250 | 70 | 0 | 0.9 | 2.6 | 0.00 | 0.00 | 0.00 | ||
| 20260905002849 | 69 | 338 | 0.9 | 1.7 | 0.00 | 0.00 | 0.00 | ||
| 20260905002448 | 69 | 338 | 1.7 | 3.5 | 0.00 | 0.00 | 0.00 | ||
| 20260905002047 | 69 | 344 | 0.9 | 2.6 | 0.00 | 0.00 | 0.00 | ||
| 20260905001644 | 69 | 353 | 1.7 | 3.5 | 0.00 | 0.00 | 0.00 | ||
| 20260905001243 | 69 | 338 | 0.9 | 1.7 | 0.00 | 0.00 | 0.00 | ||
| 20260905000835 | 68 | 317 | 3.5 | 6.1 | 0.00 | 0.00 | 0.00 | ||
| 20260905000433 | 68 | 335 | 3.5 | 4.3 | 0.00 | 0.00 | 0.00 | ||
| 20260905000031 | 70 | 313 | 3.5 | 7.0 | 0.00 | 0.00 | 0.00 | ||
| 20260904235630 | 69 | 341 | 2.6 | 4.3 | 0.00 | 0.00 | 0.00 |